Fort Riley, KS

11:59 AM CST on February 28, 2017 (GMT -0600)
Marshall Army Air Field

Weather History for KFRI - December, 2013

Change the Weather History Date:

Sunday, December 1, 2013

  Actual Average (KMHK) Record (KMHK)
Temperature  
Mean Temperature 40 °F -  
Max Temperature 58 °F 46 °F 70 °F (1998)
Min Temperature 21 °F 25 °F 8 °F (2006)
Degree Days  
Heating Degree Days 26    
Moisture  
Dew Point 30 °F    
Average Humidity 78    
Maximum Humidity 99    
Minimum Humidity 41    
Precipitation  
Precipitation 0.00 in - - ()
Sea Level Pressure  
Sea Level Pressure 30.04 in    
Wind  
Wind Speed 3 mph (NNE)    
Max Wind Speed 7 mph    
Max Gust Speed -    
Visibility 10 miles    
Events      
Averages and records for this station are not official NWS values.
T = Trace of Precipitation, MM = Missing Value Source: NWS Daily Summary

Daily Weather History Graph

Daily Weather History Graph

Search for Another Location

Airport or City:

Trip Planner

Search our weather history database for the weather conditions in past years. The results will help you decide how hot, cold, wet, or windy it might be!

Date:

Astronomy

Dec. 01, 2013 Rise Set
Actual Time 7:27 AM CST 5:04 PM CST
Civil Twilight 6:57 AM CST 5:34 PM CST
Nautical Twilight 6:24 AM CST 6:07 PM CST
Astronomical Twilight 5:52 AM CST 6:39 PM CST
Moon 5:47 AM CST (12/1) 4:15 PM CST (12/1)
Length of Visible Light 10h 36m
Length of Day
9h 37m
Waning Crescent, 2% of the Moon is Illuminated
Dec 1
Waning Crescent
Dec 2
New
Dec 9
First Quarter
Dec 17
Full
Dec 25
Last Quarter

Hourly Weather History & Observations

Time (CST) Temp. Windchill Dew Point Humidity Pressure Visibility Wind Dir Wind Speed Gust Speed Precip Events Conditions
12:58 AM 27.5 °F - 27.1 °F 99% 30.14 in 10.0 mi Calm Calm - N/A   Clear
1:58 AM 26.2 °F - 26.1 °F 99% 30.13 in 9.0 mi WSW 2.3 mph - N/A   Clear
2:58 AM 25.9 °F - 25.5 °F 99% 30.14 in 10.0 mi NW 1.2 mph - N/A   Clear
3:58 AM 23.2 °F - 23.0 °F 99% 30.14 in 7.0 mi NNE 2.3 mph - N/A   Clear
4:58 AM 24.8 °F 20.5 °F 24.4 °F 99% 30.13 in 10.0 mi North 3.5 mph - N/A   Clear
5:58 AM 22.8 °F 18.2 °F 22.6 °F 99% 30.14 in 10.0 mi NNE 3.5 mph - N/A   Clear
6:58 AM 21.2 °F - 21.0 °F 99% 30.14 in 10.0 mi NNE 2.3 mph - N/A   Clear
7:58 AM 22.1 °F 15.9 °F 21.9 °F 99% 30.14 in 10.0 mi NNE 4.6 mph - N/A   Clear
8:58 AM 28.8 °F 25.0 °F 28.6 °F 99% 30.14 in 10.0 mi NNE 3.5 mph - N/A   Clear
9:58 AM 35.8 °F 31.9 °F 32.4 °F 87% 30.15 in 10.0 mi NNE 4.6 mph - N/A   Clear
10:58 AM 43.7 °F 40.3 °F 34.5 °F 70% 30.12 in 10.0 mi North 5.8 mph - N/A   Clear
11:58 AM 51.1 °F - 35.6 °F 55% 30.08 in 10.0 mi North 5.8 mph - N/A   Clear
12:58 PM 57.2 °F - 34.3 °F 42% 30.04 in 10.0 mi NNE 3.5 mph - N/A   Clear
1:58 PM 58.3 °F - 34.3 °F 41% 30.02 in 10.0 mi Variable 3.5 mph - N/A   Clear
2:58 PM 58.3 °F - 34.3 °F 41% 29.98 in 10.0 mi NE 6.9 mph - N/A   Clear
3:58 PM 57.2 °F - 34.5 °F 43% 29.96 in 8.0 mi NNE 6.9 mph - N/A   Clear
4:58 PM 52.3 °F - 33.8 °F 49% 29.96 in 10.0 mi NE 3.5 mph - N/A   Clear
5:58 PM 47.7 °F - 33.3 °F 57% 29.96 in 10.0 mi NNE 2.3 mph - N/A   Mostly Cloudy
6:58 PM 41.9 °F - 32.4 °F 69% 29.96 in 10.0 mi NNE 2.3 mph - N/A   Partly Cloudy
7:58 PM 46.8 °F - 33.1 °F 59% 29.94 in 10.0 mi Variable 2.3 mph - N/A   Clear
8:58 PM 35.8 °F - 31.1 °F 83% 29.92 in 10.0 mi NNE 2.3 mph - N/A   Clear
9:58 PM 34.5 °F - 31.3 °F 88% 29.92 in 10.0 mi NE 2.3 mph - N/A   Clear
10:58 PM 31.5 °F - 29.3 °F 92% 29.88 in 10.0 mi NE 1.2 mph - N/A   Clear
11:58 PM 31.1 °F - 29.5 °F 94% 29.85 in 10.0 mi Calm Calm - N/A   Clear